owner,sensor,date,latitude,longitude,vertical_datum,sea_water_temperature,qcFlag 
NDBC,ioos:station:wmo:42035:1,2014-08-01T07:50:00Z,29.2320,-94.4130,-0.6,29.9,2 
NDBC,ioos:station:wmo:42035:1,2014-08-01T09:50:00Z,29.2320,-94.4130,-0.6,29.9,2 
NDBC,ioos:station:wmo:42035:1,2014-08-01T10:50:00Z,29.2320,-94.4130,-0.6,29.9,2 
NDBC,ioos:station:wmo:42035:1,2014-08-01T11:50:00Z,29.2320,-94.4130,-0.6,29.8,2 
NDBC,ioos:station:wmo:42035:1,2014-08-01T16:50:00Z,29.2320,-94.4130,-0.6,30.0,2 
NDBC,ioos:station:wmo:42035:1,2014-08-01T22:50:00Z,29.2320,-94.4130,-0.6,30.3,2 
NDBC,ioos:station:wmo:42035:1,2014-08-03T00:50:00Z,29.2320,-94.4130,-0.6,29.9,2 
NDBC,ioos:station:wmo:42035:1,2014-08-03T13:50:00Z,29.2320,-94.4130,-0.6,29.6,2 
NDBC,ioos:station:wmo:42035:1,2014-08-03T17:50:00Z,29.2320,-94.4130,-0.6,29.9,2 
NDBC,ioos:station:wmo:42035:1,2014-08-03T21:50:00Z,29.2320,-94.4130,-0.6,31.1,2 
NDBC,ioos:station:wmo:42035:1,2014-08-03T22:50:00Z,29.2320,-94.4130,-0.6,31.0,2 
NDBC,ioos:station:wmo:42035:1,2014-08-03T23:50:00Z,29.2320,-94.4130,-0.6,31.0,2 
NDBC,ioos:station:wmo:42035:1,2014-08-04T01:50:00Z,29.2320,-94.4130,-0.6,30.7,2 
NDBC,ioos:station:wmo:42035:1,2014-08-04T21:50:00Z,29.2320,-94.4130,-0.6,30.2,2 
NDBC,ioos:station:wmo:42035:1,2014-08-06T20:50:00Z,29.2320,-94.4130,-0.6,30.7,2 
NDBC,ioos:station:wmo:42035:1,2014-08-07T07:50:00Z,29.2320,-94.4130,-0.6,30.1,2 
NDBC,ioos:station:wmo:42035:1,2014-08-08T14:50:00Z,29.2320,-94.4130,-0.6,30.1,2 
NDBC,ioos:station:wmo:42035:1,2014-08-09T03:50:00Z,29.2320,-94.4130,-0.6,30.4,2 
NDBC,ioos:station:wmo:42035:1,2014-08-10T19:50:00Z,29.2320,-94.4130,-0.6,30.4,2 
NDBC,ioos:station:wmo:42035:1,2014-08-10T21:50:00Z,29.2320,-94.4130,-0.6,30.7,2 
NDBC,ioos:station:wmo:42035:1,2014-08-11T16:50:00Z,29.2320,-94.4130,-0.6,30.6,2 
NDBC,ioos:station:wmo:42035:1,2014-08-12T01:50:00Z,29.2320,-94.4130,-0.6,30.7,2 
NDBC,ioos:station:wmo:42035:1,2014-08-12T22:50:00Z,29.2320,-94.4130,-0.6,31.4,2 
NDBC,ioos:station:wmo:42035:1,2014-08-12T23:50:00Z,29.2320,-94.4130,-0.6,31.2,2 
NDBC,ioos:station:wmo:42035:1,2014-08-13T00:50:00Z,29.2320,-94.4130,-0.6,31.0,2 
NDBC,ioos:station:wmo:42035:1,2014-08-14T08:50:00Z,29.2320,-94.4130,-0.6,30.4,2 
NDBC,ioos:station:wmo:42035:1,2014-08-14T22:50:00Z,29.2320,-94.4130,-0.6,30.7,2 
NDBC,ioos:station:wmo:42035:1,2014-08-15T07:50:00Z,29.2320,-94.4130,-0.6,30.4,2 
NDBC,ioos:station:wmo:42035:1,2014-08-15T19:50:00Z,29.2320,-94.4130,-0.6,31.1,2 
NDBC,ioos:station:wmo:42035:1,2014-08-16T00:50:00Z,29.2320,-94.4130,-0.6,30.8,2 
NDBC,ioos:station:wmo:42035:1,2014-08-16T14:50:00Z,29.2320,-94.4130,-0.6,30.3,2 
NDBC,ioos:station:wmo:42035:1,2014-08-16T18:50:00Z,29.2320,-94.4130,-0.6,30.7,2 
NDBC,ioos:station:wmo:42035:1,2014-08-16T22:50:00Z,29.2320,-94.4130,-0.6,30.7,2 
NDBC,ioos:station:wmo:42035:1,2014-08-17T10:50:00Z,29.2320,-94.4130,-0.6,30.4,2 
NDBC,ioos:station:wmo:42035:1,2014-08-17T13:50:00Z,29.2320,-94.4130,-0.6,30.4,2 
NDBC,ioos:station:wmo:42035:1,2014-08-17T17:50:00Z,29.2320,-94.4130,-0.6,30.6,2 
NDBC,ioos:station:wmo:42035:1,2014-08-18T22:50:00Z,29.2320,-94.4130,-0.6,30.9,2 
NDBC,ioos:station:wmo:42035:1,2014-08-21T15:50:00Z,29.2320,-94.4130,-0.6,30.2,2 
NDBC,ioos:station:wmo:42035:1,2014-08-26T23:50:00Z,29.2320,-94.4130,-0.6,30.7,2 
NDBC,ioos:station:wmo:42035:1,2014-08-27T00:50:00Z,29.2320,-94.4130,-0.6,30.6,2 
NDBC,ioos:station:wmo:42035:1,2014-08-27T01:50:00Z,29.2320,-94.4130,-0.6,30.6,2 
NDBC,ioos:station:wmo:42035:1,2014-08-27T02:50:00Z,29.2320,-94.4130,-0.6,30.6,2 
NDBC,ioos:station:wmo:42035:1,2014-08-27T03:50:00Z,29.2320,-94.4130,-0.6,30.6,2 
NDBC,ioos:station:wmo:42035:1,2014-08-27T04:50:00Z,29.2320,-94.4130,-0.6,30.6,2 
NDBC,ioos:station:wmo:42035:1,2014-08-27T05:50:00Z,29.2320,-94.4130,-0.6,30.6,2 
NDBC,ioos:station:wmo:42035:1,2014-08-27T06:50:00Z,29.2320,-94.4130,-0.6,30.6,2 
NDBC,ioos:station:wmo:42035:1,2014-08-27T07:50:00Z,29.2320,-94.4130,-0.6,30.6,2 
NDBC,ioos:station:wmo:42035:1,2014-08-27T08:50:00Z,29.2320,-94.4130,-0.6,30.5,2 
NDBC,ioos:station:wmo:42035:1,2014-08-27T09:50:00Z,29.2320,-94.4130,-0.6,30.5,2 
NDBC,ioos:station:wmo:42035:1,2014-08-27T10:50:00Z,29.2320,-94.4130,-0.6,30.5,2 
NDBC,ioos:station:wmo:42035:1,2014-08-27T11:50:00Z,29.2320,-94.4130,-0.6,30.5,2 
NDBC,ioos:station:wmo:42035:1,2014-08-27T12:50:00Z,29.2320,-94.4130,-0.6,30.5,2 
NDBC,ioos:station:wmo:42035:1,2014-08-27T13:50:00Z,29.2320,-94.4130,-0.6,30.5,2 
NDBC,ioos:station:wmo:42035:1,2014-08-27T14:50:00Z,29.2320,-94.4130,-0.6,30.5,2 
NDBC,ioos:station:wmo:42035:1,2014-08-27T15:50:00Z,29.2320,-94.4130,-0.6,30.5,2 
NDBC,ioos:station:wmo:42035:1,2014-08-27T16:50:00Z,29.2320,-94.4130,-0.6,30.5,2 
NDBC,ioos:station:wmo:42035:1,2014-08-27T17:50:00Z,29.2320,-94.4130,-0.6,30.5,2 
NDBC,ioos:station:wmo:42035:1,2014-08-27T18:50:00Z,29.2320,-94.4130,-0.6,30.5,2 
NDBC,ioos:station:wmo:42035:1,2014-08-27T19:50:00Z,29.2320,-94.4130,-0.6,30.5,2 
NDBC,ioos:station:wmo:42035:1,2014-08-27T20:50:00Z,29.2320,-94.4130,-0.6,30.5,2 
NDBC,ioos:station:wmo:42035:1,2014-08-27T21:50:00Z,29.2320,-94.4130,-0.6,30.5,2 
NDBC,ioos:station:wmo:42035:1,2014-08-27T22:50:00Z,29.2320,-94.4130,-0.6,30.6,2 
NDBC,ioos:station:wmo:42035:1,2014-08-27T23:50:00Z,29.2320,-94.4130,-0.6,30.6,2 
NDBC,ioos:station:wmo:42035:1,2014-08-28T00:50:00Z,29.2320,-94.4130,-0.6,30.5,2 
NDBC,ioos:station:wmo:42035:1,2014-08-28T01:50:00Z,29.2320,-94.4130,-0.6,30.5,2 
NDBC,ioos:station:wmo:42035:1,2014-08-28T02:50:00Z,29.2320,-94.4130,-0.6,30.5,2 
NDBC,ioos:station:wmo:42035:1,2014-08-28T03:50:00Z,29.2320,-94.4130,-0.6,30.5,2 
NDBC,ioos:station:wmo:42035:1,2014-08-28T04:50:00Z,29.2320,-94.4130,-0.6,30.5,2 
NDBC,ioos:station:wmo:42035:1,2014-08-28T05:50:00Z,29.2320,-94.4130,-0.6,30.5,2 
NDBC,ioos:station:wmo:42035:1,2014-08-28T06:50:00Z,29.2320,-94.4130,-0.6,30.5,2 
NDBC,ioos:station:wmo:42035:1,2014-08-28T07:50:00Z,29.2320,-94.4130,-0.6,30.4,2 
NDBC,ioos:station:wmo:42035:1,2014-08-28T08:50:00Z,29.2320,-94.4130,-0.6,30.4,2 
NDBC,ioos:station:wmo:42035:1,2014-08-28T09:50:00Z,29.2320,-94.4130,-0.6,30.4,2 
NDBC,ioos:station:wmo:42035:1,2014-08-28T10:50:00Z,29.2320,-94.4130,-0.6,30.4,2 
NDBC,ioos:station:wmo:42035:1,2014-08-28T11:50:00Z,29.2320,-94.4130,-0.6,30.4,2 
NDBC,ioos:station:wmo:42035:1,2014-08-28T12:50:00Z,29.2320,-94.4130,-0.6,30.4,2 
NDBC,ioos:station:wmo:42035:1,2014-08-28T13:50:00Z,29.2320,-94.4130,-0.6,30.3,2 
NDBC,ioos:station:wmo:42035:1,2014-08-28T14:50:00Z,29.2320,-94.4130,-0.6,30.1,2 
NDBC,ioos:station:wmo:42035:1,2014-08-28T15:50:00Z,29.2320,-94.4130,-0.6,30.2,2 
NDBC,ioos:station:wmo:42035:1,2014-08-28T16:50:00Z,29.2320,-94.4130,-0.6,30.2,2 
NDBC,ioos:station:wmo:42035:1,2014-08-28T17:50:00Z,29.2320,-94.4130,-0.6,30.3,2 
NDBC,ioos:station:wmo:42035:1,2014-08-28T18:50:00Z,29.2320,-94.4130,-0.6,30.3,2 
NDBC,ioos:station:wmo:42035:1,2014-08-28T19:50:00Z,29.2320,-94.4130,-0.6,30.2,2 
NDBC,ioos:station:wmo:42035:1,2014-08-28T20:50:00Z,29.2320,-94.4130,-0.6,30.2,2 
NDBC,ioos:station:wmo:42035:1,2014-08-28T21:50:00Z,29.2320,-94.4130,-0.6,30.2,2 
NDBC,ioos:station:wmo:42035:1,2014-08-28T22:50:00Z,29.2320,-94.4130,-0.6,30.2,2 
NDBC,ioos:station:wmo:42035:1,2014-08-28T23:50:00Z,29.2320,-94.4130,-0.6,30.2,2 
NDBC,ioos:station:wmo:42035:1,2014-08-29T00:50:00Z,29.2320,-94.4130,-0.6,30.0,2 
NDBC,ioos:station:wmo:42035:1,2014-08-29T01:50:00Z,29.2320,-94.4130,-0.6,30.1,2 
NDBC,ioos:station:wmo:42035:1,2014-08-29T02:50:00Z,29.2320,-94.4130,-0.6,30.1,2 
NDBC,ioos:station:wmo:42035:1,2014-08-29T04:50:00Z,29.2320,-94.4130,-0.6,30.1,2 
NDBC,ioos:station:wmo:42035:1,2014-08-29T05:50:00Z,29.2320,-94.4130,-0.6,30.1,2 
NDBC,ioos:station:wmo:42035:1,2014-08-29T07:50:00Z,29.2320,-94.4130,-0.6,30.1,2 
NDBC,ioos:station:wmo:42035:1,2014-08-29T08:50:00Z,29.2320,-94.4130,-0.6,30.1,2 
NDBC,ioos:station:wmo:42035:1,2014-08-29T09:50:00Z,29.2320,-94.4130,-0.6,30.1,2 
NDBC,ioos:station:wmo:42035:1,2014-08-29T10:50:00Z,29.2320,-94.4130,-0.6,30.1,2 
NDBC,ioos:station:wmo:42035:1,2014-08-29T11:50:00Z,29.2320,-94.4130,-0.6,30.0,2 
NDBC,ioos:station:wmo:42035:1,2014-08-29T12:50:00Z,29.2320,-94.4130,-0.6,30.0,2 
NDBC,ioos:station:wmo:42035:1,2014-08-29T13:50:00Z,29.2320,-94.4130,-0.6,29.9,2 
NDBC,ioos:station:wmo:42035:1,2014-08-29T14:50:00Z,29.2320,-94.4130,-0.6,29.9,2 
NDBC,ioos:station:wmo:42035:1,2014-08-29T15:50:00Z,29.2320,-94.4130,-0.6,29.9,2 
NDBC,ioos:station:wmo:42035:1,2014-08-29T16:50:00Z,29.2320,-94.4130,-0.6,29.9,2 
NDBC,ioos:station:wmo:42035:1,2014-08-29T17:50:00Z,29.2320,-94.4130,-0.6,29.9,2 
NDBC,ioos:station:wmo:42035:1,2014-08-29T18:50:00Z,29.2320,-94.4130,-0.6,29.9,2 
NDBC,ioos:station:wmo:42035:1,2014-08-29T19:50:00Z,29.2320,-94.4130,-0.6,29.9,2 
NDBC,ioos:station:wmo:42035:1,2014-08-29T20:50:00Z,29.2320,-94.4130,-0.6,29.9,2 
NDBC,ioos:station:wmo:42035:1,2014-08-29T21:50:00Z,29.2320,-94.4130,-0.6,29.9,2 
NDBC,ioos:station:wmo:42035:1,2014-08-29T22:50:00Z,29.2320,-94.4130,-0.6,29.8,2 
NDBC,ioos:station:wmo:42035:1,2014-08-29T23:50:00Z,29.2320,-94.4130,-0.6,29.8,2 
NDBC,ioos:station:wmo:42035:1,2014-08-30T00:50:00Z,29.2320,-94.4130,-0.6,29.8,2 
NDBC,ioos:station:wmo:42035:1,2014-08-30T05:50:00Z,29.2320,-94.4130,-0.6,29.7,2 
NDBC,ioos:station:wmo:42035:1,2014-08-30T06:50:00Z,29.2320,-94.4130,-0.6,29.7,2 
NDBC,ioos:station:wmo:42035:1,2014-08-30T07:50:00Z,29.2320,-94.4130,-0.6,29.7,2 
NDBC,ioos:station:wmo:42035:1,2014-08-30T08:50:00Z,29.2320,-94.4130,-0.6,29.7,2 
NDBC,ioos:station:wmo:42035:1,2014-08-30T09:50:00Z,29.2320,-94.4130,-0.6,29.7,2 
NDBC,ioos:station:wmo:42035:1,2014-08-30T10:50:00Z,29.2320,-94.4130,-0.6,29.7,2 
NDBC,ioos:station:wmo:42035:1,2014-08-30T11:50:00Z,29.2320,-94.4130,-0.6,29.7,2 
NDBC,ioos:station:wmo:42035:1,2014-08-30T12:50:00Z,29.2320,-94.4130,-0.6,29.6,2 
NDBC,ioos:station:wmo:42035:1,2014-08-30T13:50:00Z,29.2320,-94.4130,-0.6,29.6,2 
NDBC,ioos:station:wmo:42035:1,2014-08-30T14:50:00Z,29.2320,-94.4130,-0.6,29.6,2 
NDBC,ioos:station:wmo:42035:1,2014-08-30T15:50:00Z,29.2320,-94.4130,-0.6,29.6,2 
NDBC,ioos:station:wmo:42035:1,2014-08-30T16:50:00Z,29.2320,-94.4130,-0.6,29.7,2 
NDBC,ioos:station:wmo:42035:1,2014-08-30T17:50:00Z,29.2320,-94.4130,-0.6,29.7,2 
NDBC,ioos:station:wmo:42035:1,2014-08-30T18:50:00Z,29.2320,-94.4130,-0.6,29.6,2 
NDBC,ioos:station:wmo:42035:1,2014-08-30T19:50:00Z,29.2320,-94.4130,-0.6,29.6,2 
NDBC,ioos:station:wmo:42035:1,2014-08-30T20:50:00Z,29.2320,-94.4130,-0.6,29.6,2 
NDBC,ioos:station:wmo:42035:1,2014-08-30T21:50:00Z,29.2320,-94.4130,-0.6,29.6,2 
NDBC,ioos:station:wmo:42035:1,2014-08-30T22:50:00Z,29.2320,-94.4130,-0.6,29.6,2 
NDBC,ioos:station:wmo:42035:1,2014-08-30T23:50:00Z,29.2320,-94.4130,-0.6,29.6,2 
NDBC,ioos:station:wmo:42035:1,2014-08-31T00:50:00Z,29.2320,-94.4130,-0.6,29.5,2 
NDBC,ioos:station:wmo:42035:1,2014-08-31T01:50:00Z,29.2320,-94.4130,-0.6,29.5,2 
NDBC,ioos:station:wmo:42035:1,2014-08-31T02:50:00Z,29.2320,-94.4130,-0.6,29.5,2 
NDBC,ioos:station:wmo:42035:1,2014-08-31T03:50:00Z,29.2320,-94.4130,-0.6,29.5,2 
NDBC,ioos:station:wmo:42035:1,2014-08-31T04:50:00Z,29.2320,-94.4130,-0.6,29.5,2 
NDBC,ioos:station:wmo:42035:1,2014-08-31T05:50:00Z,29.2320,-94.4130,-0.6,29.4,2 
NDBC,ioos:station:wmo:42035:1,2014-08-31T06:50:00Z,29.2320,-94.4130,-0.6,29.4,2 
NDBC,ioos:station:wmo:42035:1,2014-08-31T07:50:00Z,29.2320,-94.4130,-0.6,29.4,2 
NDBC,ioos:station:wmo:42035:1,2014-08-31T08:50:00Z,29.2320,-94.4130,-0.6,29.4,2 
NDBC,ioos:station:wmo:42035:1,2014-08-31T09:50:00Z,29.2320,-94.4130,-0.6,29.4,2 
NDBC,ioos:station:wmo:42035:1,2014-08-31T10:50:00Z,29.2320,-94.4130,-0.6,29.4,2 
NDBC,ioos:station:wmo:42035:1,2014-08-31T11:50:00Z,29.2320,-94.4130,-0.6,29.4,2 
NDBC,ioos:station:wmo:42035:1,2014-08-31T12:50:00Z,29.2320,-94.4130,-0.6,29.4,2 
NDBC,ioos:station:wmo:42035:1,2014-08-31T13:50:00Z,29.2320,-94.4130,-0.6,29.4,2 
NDBC,ioos:station:wmo:42035:1,2014-08-31T14:50:00Z,29.2320,-94.4130,-0.6,29.4,2 
NDBC,ioos:station:wmo:42035:1,2014-08-31T15:50:00Z,29.2320,-94.4130,-0.6,29.5,2 
NDBC,ioos:station:wmo:42035:1,2014-08-31T16:50:00Z,29.2320,-94.4130,-0.6,29.5,2 
NDBC,ioos:station:wmo:42035:1,2014-08-31T17:50:00Z,29.2320,-94.4130,-0.6,29.6,2 
NDBC,ioos:station:wmo:42035:1,2014-08-31T18:50:00Z,29.2320,-94.4130,-0.6,29.6,2 
NDBC,ioos:station:wmo:42035:1,2014-08-31T19:50:00Z,29.2320,-94.4130,-0.6,29.5,2 
NDBC,ioos:station:wmo:42035:1,2014-08-31T20:50:00Z,29.2320,-94.4130,-0.6,29.5,2 
NDBC,ioos:station:wmo:42035:1,2014-08-31T21:50:00Z,29.2320,-94.4130,-0.6,29.4,2 
NDBC,ioos:station:wmo:42035:1,2014-08-31T22:50:00Z,29.2320,-94.4130,-0.6,29.5,2 
NDBC,ioos:station:wmo:42035:1,2014-08-31T23:50:00Z,29.2320,-94.4130,-0.6,29.5,2 
 
DISCLAIMER: The Gulf of Mexico Coastal and Ocean Observing (GCOOS) Data Portal aggregates data from the regional data providers for the convenience of all data users. Data published on this website should not be used for navigation or certain other uses as we cannot guarantee data accuracy or availability. The data and delivery services are provided 'as is' without warranty of any kind. Data Source: Gulf of Mexico Coastal Ocean Observing System Data Portal (http://data.gcoos.org/) 
